Date String (YYYY-MM-DD hh:mm:ss) UTC,Instrument flags,absolute air pressure of the measurement (hPa),sample flow rate (lpm),inlet stack bypass flow (lpm),air temperature of the measurement (°C),ambient temperature measured by the external sensor (°C),aerosol sample conditioner tube jacket temperature (°C),OPC LED temperature (°C),internal box temperature (°C),relative humidity of the measurement (%),span deviation,mass concentration of particles derived from Lorenz-Mie calculation of OPC scattering (μg/m³),mass concentration of particles derived from Lorenz-Mie calculation of OPC scattering (μg/m³),mass concentration of particles derived from Lorenz-Mie calculation of OPC scattering (μg/m³)
DateTimeUTC,F1_M11,P_M11,Q1_M11,Q2_M11,T1_M11,T2_M11,T3_M11,T4_M11,T5_M11,U1_M11,ZSPAN_M11,X0_M11,X2_M11,X1_M11
2023-09-01 11:00:00,SystemResetWarning,0829.4,5.00,000.00,028.2,026.9,000.0,036.6,029.8,16.3,0000.0,0003.85,0002.44,0001.84
2023-09-01 11:01:00,SystemResetWarning,0829.4,4.99,000.00,028.3,027.0,000.0,036.6,029.9,16.3,0000.0,0003.99,0002.44,0001.84
2023-09-01 11:02:00,SystemResetWarning,0829.5,4.99,000.00,028.3,027.1,000.0,036.6,029.9,16.2,0000.0,0004.30,0002.49,0001.85
2023-09-01 11:03:00,SystemResetWarning,0829.5,5.01,000.00,028.3,027.2,000.0,036.7,030.0,16.2,0000.0,0004.40,0002.54,0001.85
2023-09-01 11:04:00,SystemResetWarning,0829.5,5.00,000.00,028.4,027.3,000.0,036.7,030.0,16.2,0000.0,0004.46,0002.56,0001.85
2023-09-01 11:05:00,SystemResetWarning,0829.6,5.00,000.00,028.4,027.3,000.0,036.7,030.0,16.2,0000.0,0004.43,0002.52,0001.85
2023-09-01 11:06:00,SystemResetWarning,0829.6,5.01,000.00,028.4,027.4,000.0,036.7,030.1,16.1,0000.0,0004.75,0002.52,0001.85
2023-09-01 11:07:00,SystemResetWarning,0829.6,4.99,000.00,028.5,027.4,000.0,036.8,030.1,16.5,0000.0,0004.88,0002.55,0001.87
2023-09-01 11:08:00,SystemResetWarning,0829.7,4.99,000.00,028.5,027.5,000.0,036.8,030.2,17.1,0000.0,0005.05,0002.57,0001.88
2023-09-01 11:09:00,SystemResetWarning,0829.7,5.00,000.00,028.5,027.6,000.0,036.8,030.2,16.9,0000.0,0005.20,0002.57,0001.89
2023-09-01 11:10:00,SystemResetWarning,0829.7,5.01,000.00,028.6,027.4,000.0,036.8,030.2,16.8,0000.0,0005.24,0002.59,0001.89
2023-09-01 11:11:00,SystemResetWarning,0829.7,4.99,000.00,028.5,025.8,000.0,036.7,029.8,16.8,0000.0,0005.21,0002.55,0001.88
2023-09-01 11:12:00,SystemResetWarning,0829.7,5.01,000.00,028.4,024.9,000.0,036.7,029.6,16.9,0000.0,0004.88,0002.52,0001.87
2023-09-01 11:13:00,SystemResetWarning,0829.7,5.01,000.00,028.3,024.9,000.0,036.6,029.4,17.0,0000.0,0004.48,0002.48,0001.86
2023-09-01 11:14:00,SystemResetWarning,0829.7,5.01,000.00,028.2,025.1,000.0,036.7,029.4,17.1,0000.0,0004.46,0002.43,0001.86
2023-09-01 11:15:00,SystemResetWarning,0829.7,4.99,000.00,028.2,025.5,000.0,036.7,029.5,16.9,0000.0,0004.49,0002.41,0001.86
2023-09-01 11:16:00,SystemResetWarning,0829.7,5.00,000.00,028.2,025.8,000.0,036.7,029.6,16.9,0000.0,0004.66,0002.45,0001.88
2023-09-01 11:17:00,SystemResetWarning,0829.7,5.00,000.00,028.2,026.1,000.0,036.7,029.7,16.7,0000.0,0005.32,0002.46,0001.89
2023-09-01 11:18:00,SystemResetWarning,0829.7,5.00,000.00,028.2,026.4,000.0,036.7,029.7,16.8,0000.0,0005.22,0002.44,0001.90
2023-09-01 11:19:00,SystemResetWarning,0829.7,5.00,000.00,028.2,026.6,000.0,036.7,029.8,16.9,0000.0,0006.24,0002.45,0001.90
2023-09-01 11:20:00,SystemResetWarning,0829.7,4.99,000.00,028.3,026.8,000.0,036.7,029.9,16.9,0000.0,0006.62,0002.45,0001.91
2023-09-01 11:21:00,SystemResetWarning,0829.7,5.00,000.00,028.3,026.9,000.0,036.7,029.9,16.8,0000.0,0006.88,0002.45,0001.91
2023-09-01 11:22:00,SystemResetWarning,0829.7,5.00,000.00,028.3,027.1,000.0,036.7,029.9,16.8,0000.0,0007.33,0002.49,0001.92
2023-09-01 11:23:00,SystemResetWarning,0829.7,5.00,000.00,028.4,027.2,000.0,036.7,030.0,17.0,0000.0,0007.39,0002.53,0001.93
2023-09-01 11:24:00,SystemResetWarning,0829.7,5.00,000.00,028.4,027.3,000.0,036.8,030.0,17.3,0000.0,0007.43,0002.57,0001.94
2023-09-01 11:25:00,SystemResetWarning,0829.8,5.00,000.00,028.4,027.4,000.0,036.8,030.1,17.4,0000.0,0007.42,0002.61,0001.96
2023-09-01 11:26:00,SystemResetWarning,0829.8,4.98,000.00,028.5,027.4,000.0,036.8,030.1,17.2,0000.0,0007.38,0002.62,0001.96
2023-09-01 11:27:00,SystemResetWarning,0829.8,5.00,000.00,028.5,027.5,000.0,036.8,030.2,17.1,0000.0,0007.65,0002.62,0001.97
2023-09-01 11:28:00,SystemResetWarning,0829.8,4.99,000.00,028.5,026.8,000.0,036.8,030.0,17.1,0000.0,0007.63,0002.63,0001.97
2023-09-01 11:29:00,SystemResetWarning,0829.8,5.00,000.00,028.4,025.1,000.0,036.7,029.6,17.1,0000.0,0007.74,0002.62,0001.96
2023-09-01 11:30:00,SystemResetWarning,0829.8,5.00,000.00,028.3,024.8,000.0,036.6,029.5,17.2,0000.0,0007.57,0002.65,0001.96
2023-09-01 11:31:00,SystemResetWarning,0829.8,5.01,000.00,028.2,024.9,000.0,036.6,029.4,17.5,0000.0,0007.67,0002.67,0001.96
2023-09-01 11:32:00,SystemResetWarning,0829.8,5.01,000.00,028.2,025.3,000.0,036.6,029.5,17.6,0000.0,0007.67,0002.71,0001.97
2023-09-01 11:33:00,SystemResetWarning,0829.8,4.99,000.00,028.2,025.6,000.0,036.6,029.5,17.8,0000.0,0007.39,0002.72,0001.98
2023-09-01 11:34:00,SystemResetWarning,0829.7,5.00,000.00,028.2,025.9,000.0,036.6,029.6,17.8,0000.0,0008.49,0002.70,0001.98
2023-09-01 11:35:00,SystemResetWarning,0829.8,5.00,000.00,028.2,026.2,000.0,036.6,029.7,17.4,0000.0,0008.70,0002.72,0001.98
2023-09-01 11:36:00,SystemResetWarning,0829.8,5.00,000.00,028.2,026.5,000.0,036.6,029.8,17.2,0000.0,0009.28,0002.76,0001.99
2023-09-01 11:37:00,SystemResetWarning,0829.8,5.00,000.00,028.2,026.7,000.0,036.7,029.8,17.1,0000.0,0009.40,0002.77,0001.99
2023-09-01 11:38:00,SystemResetWarning,0829.8,5.00,000.00,028.3,026.9,000.0,036.7,029.9,16.9,0000.0,0009.21,0002.79,0001.98
2023-09-01 11:39:00,SystemResetWarning,0829.8,5.00,000.00,028.3,027.0,000.0,036.7,029.9,16.9,0000.0,0008.73,0002.79,0002.00
2023-09-01 11:40:00,SystemResetWarning,0829.8,5.00,000.00,028.3,027.1,000.0,036.7,030.0,16.8,0000.0,0008.43,0002.82,0002.03
2023-09-01 11:41:00,SystemResetWarning,0829.8,4.99,000.00,028.4,027.2,000.0,036.7,030.0,16.7,0000.0,0008.30,0002.82,0002.04
2023-09-01 11:42:00,SystemResetWarning,0829.8,5.00,000.00,028.4,027.3,000.0,036.7,030.0,16.6,0000.0,0007.53,0002.80,0002.06
2023-09-01 11:43:00,SystemResetWarning,0829.9,5.00,000.00,028.4,027.4,000.0,036.8,030.1,16.6,0000.0,0007.53,0002.78,0002.06
2023-09-01 11:44:00,SystemResetWarning,0829.9,5.00,000.00,028.5,027.4,000.0,036.8,030.1,16.5,0000.0,0007.58,0002.79,0002.06
2023-09-01 11:45:00,SystemResetWarning,0829.9,5.00,000.00,028.5,027.5,000.0,036.8,030.2,16.5,0000.0,0006.15,0002.83,0002.07
2023-09-01 11:46:00,SystemResetWarning,0830.0,5.00,000.00,028.5,027.5,000.0,036.8,030.2,16.6,0000.0,0005.54,0002.83,0002.09
2023-09-01 11:47:00,SystemResetWarning,0829.9,5.00,000.00,028.6,027.6,000.0,036.8,030.2,16.5,0000.0,0005.14,0002.80,0002.09
2023-09-01 11:48:00,SystemResetWarning,0829.9,4.99,000.00,028.6,026.4,000.0,036.8,029.9,16.5,0000.0,0004.68,0002.80,0002.10
2023-09-01 11:49:00,SystemResetWarning,0829.9,5.01,000.00,028.4,025.0,000.0,036.7,029.6,16.6,0000.0,0004.61,0002.78,0002.13
2023-09-01 11:50:00,SystemResetWarning,0829.8,5.01,000.00,028.3,024.8,000.0,036.7,029.5,16.5,0000.0,0004.66,0002.81,0002.12
2023-09-01 11:51:00,SystemResetWarning,0829.8,5.00,000.00,028.2,025.1,000.0,036.7,029.4,16.6,0000.0,0004.75,0002.83,0002.11
2023-09-01 11:52:00,SystemResetWarning,0829.8,5.00,000.00,028.2,025.4,000.0,036.7,029.5,16.7,0000.0,0006.31,0002.82,0002.10
2023-09-01 11:53:00,SystemResetWarning,0829.8,5.00,000.00,028.2,025.7,000.0,036.7,029.6,16.7,0000.0,0007.10,0002.86,0002.11
2023-09-01 11:54:00,SystemResetWarning,0829.7,5.00,000.00,028.2,026.0,000.0,036.7,029.6,16.9,0000.0,0007.08,0002.84,0002.13
2023-09-01 11:55:00,SystemResetWarning,0829.7,5.00,000.00,028.2,026.3,000.0,036.7,029.7,17.0,0000.0,0006.92,0002.82,0002.15
2023-09-01 11:56:00,SystemResetWarning,0829.7,5.00,000.00,028.2,026.5,000.0,036.7,029.8,17.0,0000.0,0007.15,0002.86,0002.18
2023-09-01 11:57:00,SystemResetWarning,0829.7,5.00,000.00,028.3,026.7,000.0,036.7,029.8,17.6,0000.0,0007.64,0002.87,0002.18
2023-09-01 11:58:00,SystemResetWarning,0829.7,5.00,000.00,028.3,026.8,000.0,036.7,029.9,17.5,0000.0,0007.81,0002.88,0002.20
2023-09-01 11:59:00,SystemResetWarning,0829.7,5.00,000.00,028.3,027.0,000.0,036.7,029.9,17.5,0000.0,0008.34,0002.95,0002.24
